Location: Moscow
(44.4414°N, 72.7154°W)
Time: 02:59:58
(UTC+00:00)

Courier 1B Rocket - All Passes

Search period start: 12 November 2024 00:00
Search period end: 22 November 2024 00:00
Orbit: 920 x 1201 km, 28.2° (Epoch: 11 November)

Date Brightness Start Highest point End Pass type
(mag) Time Alt. Az. Time Alt. Az. Time Alt. Az.
12 Nov - 00:05:37 10° SW 00:09:15 16° S 00:12:53 10° SSE visible
12 Nov - 21:12:30 10° SSW 21:16:10 16° S 21:19:46 10° SE daylight
12 Nov - 23:04:28 10° SW 23:08:27 17° S 23:12:24 10° SE visible
13 Nov - 00:58:56 10° SW 01:00:38 11° SSW 01:02:20 10° S visible
13 Nov - 20:12:12 10° SSW 20:15:21 14° SSE 20:18:25 10° SE daylight
13 Nov - 22:03:26 10° SW 22:07:38 18° S 22:11:44 10° SE visible
13 Nov - 23:56:48 10° SW 23:59:53 14° SSW 00:02:55 10° SSE visible
14 Nov - 19:12:32 10° S 19:14:31 11° SSE 19:16:27 10° SE daylight
14 Nov - 21:02:34 10° SW 21:06:48 18° S 21:10:55 10° SE daylight
14 Nov - 22:55:18 10° SW 22:59:06 16° S 23:02:49 10° SSE visible
15 Nov - 20:01:50 10° SSW 20:05:57 17° S 20:09:55 10° SE daylight
15 Nov - 21:54:01 10° SW 21:58:17 18° S 22:02:25 10° SE visible
15 Nov - 23:48:41 10° SW 23:50:28 11° SSW 23:52:14 10° S visible
16 Nov - 19:01:22 10° SSW 19:05:04 15° SSE 19:08:39 10° SE daylight
16 Nov - 20:52:53 10° SW 20:57:26 19° S 21:01:48 10° SE daylight
16 Nov - 22:46:25 10° SW 22:49:42 14° SSW 22:52:55 10° SSE visible
17 Nov - 18:01:22 10° S 18:04:11 13° SSE 18:06:55 10° SE daylight
17 Nov - 19:51:53 10° SW 19:56:33 19° S 20:01:01 10° SE daylight
17 Nov - 21:44:48 10° SW 21:48:54 17° S 21:52:52 10° SSE visible
18 Nov - 18:51:04 10° SSW 18:55:38 18° S 19:00:02 10° SE daylight
18 Nov - 20:43:24 10° SW 20:48:02 19° S 20:52:29 10° SE daylight
18 Nov - 22:38:05 10° SW 22:40:15 12° SSW 22:42:24 10° S visible
19 Nov - 17:50:29 10° SSW 17:54:42 16° SSE 17:58:47 10° SE daylight
19 Nov - 19:42:11 10° SW 19:47:09 20° S 19:51:53 10° SE daylight
19 Nov - 21:35:48 10° SW 21:39:28 15° SSW 21:43:00 10° SSE daylight
20 Nov - 16:50:18 10° S 16:53:45 14° SSE 16:57:08 10° SE daylight
20 Nov - 18:41:07 10° SW 18:46:12 20° S 18:51:04 10° SE daylight
20 Nov - 20:34:07 10° SW 20:38:37 18° S 20:42:57 10° SSE daylight
21 Nov - 15:51:14 10° S 15:52:49 11° SSE 15:54:22 10° SE daylight
21 Nov - 17:40:13 10° SSW 17:45:14 19° S 17:50:03 10° SE daylight
21 Nov - 19:32:40 10° SW 19:37:43 20° S 19:42:32 10° SE daylight
21 Nov - 21:27:17 10° SW 21:29:59 12° SSW 21:32:37 10° S daylight
